Montevideo, MN

1:36 AM CDT on March 28, 2017 (GMT -0500)
Montevideo-Chippewa County

Weather History for KMVE - April, 2013

Change the Weather History Date:

Thursday, April 11, 2013

  Actual Average Record
Temperature  
Mean Temperature 30 °F -  
Max Temperature 32 °F 54 °F 86 °F (1968)
Min Temperature 28 °F 31 °F 3 °F (2001)
Degree Days  
Heating Degree Days 35    
Moisture  
Dew Point 30 °F    
Average Humidity 99    
Maximum Humidity 100    
Minimum Humidity 93    
Precipitation  
Precipitation 0.07 in - - ()
Sea Level Pressure  
Sea Level Pressure 29.76 in    
Wind  
Wind Speed 16 mph (East)    
Max Wind Speed 24 mph    
Max Gust Speed 30 mph    
Visibility 3 miles    
Events Snow    
Averages and records for this station are not official NWS values.
T = Trace of Precipitation, MM = Missing Value Source: NWS Daily Summary

Daily Weather History Graph

Daily Weather History Graph

Search for Another Location

Airport or City:

Trip Planner

Search our weather history database for the weather conditions in past years. The results will help you decide how hot, cold, wet, or windy it might be!

Date:

Astronomy

Apr. 11, 2013 Rise Set
Actual Time 6:44 AM CDT 8:03 PM CDT
Civil Twilight 6:14 AM CDT 8:34 PM CDT
Nautical Twilight 5:37 AM CDT 9:10 PM CDT
Astronomical Twilight 4:59 AM CDT 9:49 PM CDT
Moon 7:13 AM CDT (4/11) 9:44 PM CDT (4/11)
Length of Visible Light 14h 19m
Length of Day
13h 18m
New Moon, 2% of the Moon is Illuminated
Apr 11
New Moon
Apr 18
First Quarter
Apr 25
Full
May 2
Last Quarter
May 9
New

Hourly Weather History & Observations

Time (CDT) Temp. Windchill Dew Point Humidity Pressure Visibility Wind Dir Wind Speed Gust Speed Precip Events Conditions
12:14 AM 30.2 °F 18.1 °F 30.2 °F 100% 29.90 in 2.5 mi East 18.4 mph - N/A Snow Light Snow
12:34 AM 30.2 °F 20.2 °F 30.2 °F 100% 29.91 in 5.0 mi ENE 12.7 mph - 0.01 in Snow Light Snow
12:54 AM 30.2 °F 19.3 °F 30.2 °F 100% 29.91 in 10.0 mi East 15.0 mph - 0.02 in Snow Light Snow
1:14 AM 30.2 °F 19.3 °F 30.2 °F 100% 29.90 in 3.0 mi East 15.0 mph - N/A Snow Light Snow
1:34 AM 30.2 °F 18.9 °F 30.2 °F 100% 29.89 in 2.5 mi East 16.1 mph - N/A   Overcast
1:54 AM 30.2 °F 19.8 °F 30.2 °F 100% 29.88 in 1.8 mi East 13.8 mph 18.4 mph 0.01 in Snow Light Snow
2:14 AM 30.2 °F 18.5 °F 30.2 °F 100% 29.87 in 2.0 mi East 17.3 mph - N/A Snow Light Snow
2:33 AM 30.2 °F 19.3 °F 30.2 °F 100% 29.87 in 2.0 mi East 15.0 mph - N/A Snow Light Snow
2:54 AM 30.2 °F 19.8 °F 30.2 °F 100% 29.85 in 0.5 mi East 13.8 mph - N/A Snow Snow
3:14 AM 30.2 °F 19.8 °F 30.2 °F 100% 29.85 in 1.0 mi East 13.8 mph - N/A Snow Snow
3:33 AM 30.2 °F 20.8 °F 30.2 °F 100% 29.84 in 1.0 mi East 11.5 mph - 0.01 in Snow Snow
3:54 AM 30.2 °F 20.8 °F 30.2 °F 100% 29.83 in 1.0 mi ENE 11.5 mph - 0.01 in Snow Snow
4:14 AM 28.4 °F 18.0 °F 28.4 °F 100% 29.82 in 0.8 mi ENE 12.7 mph 18.4 mph N/A Snow Snow
4:33 AM 28.4 °F 17.0 °F 28.4 °F 100% 29.82 in 1.0 mi East 15.0 mph - N/A Snow Snow
4:54 AM 28.4 °F 15.4 °F 28.4 °F 100% 29.80 in 1.2 mi East 19.6 mph - N/A Snow Light Snow
5:14 AM 28.4 °F 16.2 °F 28.4 °F 100% 29.79 in 0.8 mi East 17.3 mph 21.9 mph N/A Snow Snow
5:33 AM 28.4 °F 16.2 °F 28.4 °F 100% 29.78 in 1.0 mi East 17.3 mph - N/A Snow Snow
5:54 AM 28.4 °F 15.4 °F 28.4 °F 100% 29.77 in 1.0 mi East 19.6 mph - N/A Snow Snow
6:14 AM 28.4 °F 15.8 °F 28.4 °F 100% 29.76 in 1.0 mi East 18.4 mph - N/A Snow Snow
6:33 AM 28.4 °F 14.1 °F 28.4 °F 100% 29.75 in 1.5 mi East 24.2 mph 28.8 mph N/A Snow Light Snow
6:54 AM 28.4 °F 14.7 °F 28.4 °F 100% 29.75 in 1.2 mi East 21.9 mph 25.3 mph N/A Snow Light Snow
7:14 AM 28.4 °F 14.7 °F 28.4 °F 100% 29.75 in 0.5 mi East 21.9 mph - 0.01 in Snow Heavy Snow
7:33 AM 28.4 °F 14.7 °F 28.4 °F 100% 29.73 in 0.5 mi East 21.9 mph 29.9 mph 0.01 in Snow Snow
7:54 AM 28.4 °F 14.7 °F 28.4 °F 100% 29.72 in 0.2 mi East 21.9 mph 27.6 mph 0.01 in Snow Snow
8:14 AM 28.4 °F 15.1 °F 28.4 °F 100% 29.73 in 0.5 mi ESE 20.7 mph 26.5 mph 0.01 in Snow Light Snow
8:33 AM 28.4 °F 15.1 °F 28.4 °F 100% 29.73 in 0.5 mi East 20.7 mph - 0.01 in Snow Light Snow
8:54 AM 28.4 °F 15.4 °F 28.4 °F 100% 29.73 in 1.0 mi ESE 19.6 mph 26.5 mph 0.01 in Snow Light Snow
9:14 AM 28.4 °F 15.4 °F 28.4 °F 100% 29.73 in 1.8 mi ESE 19.6 mph 27.6 mph N/A Snow Light Snow
9:34 AM 28.4 °F 14.7 °F 28.4 °F 100% 29.73 in 3.0 mi ESE 21.9 mph 26.5 mph N/A Snow Light Snow
9:54 AM 28.4 °F 15.4 °F 28.4 °F 100% 29.73 in 7.0 mi ESE 19.6 mph 26.5 mph N/A   Mostly Cloudy
10:14 AM 28.4 °F 16.2 °F 28.4 °F 100% 29.73 in 7.0 mi ESE 17.3 mph 23.0 mph N/A   Mostly Cloudy
10:34 AM 30.2 °F 17.4 °F 28.4 °F 93% 29.73 in 7.0 mi ESE 20.7 mph - N/A   Overcast
10:54 AM 30.2 °F 18.5 °F 28.4 °F 93% 29.73 in 10.0 mi ESE 17.3 mph 21.9 mph N/A   Overcast
11:14 AM 30.2 °F 18.5 °F 28.4 °F 93% 29.74 in 10.0 mi ESE 17.3 mph - 0.01 in   Overcast
11:34 AM 30.2 °F 19.3 °F 28.4 °F 93% 29.73 in 7.0 mi ESE 15.0 mph 21.9 mph 0.01 in Snow Light Snow
12:14 PM 32.0 °F 21.2 °F 30.2 °F 93% 29.73 in 2.0 mi ESE 16.1 mph 23.0 mph N/A   Overcast
12:34 PM 32.0 °F 22.1 °F 30.2 °F 93% 29.72 in 1.2 mi ESE 13.8 mph - N/A Snow Light Snow
12:54 PM 32.0 °F 22.5 °F 30.2 °F 93% 29.72 in 1.2 mi ESE 12.7 mph - N/A Snow Light Snow
1:14 PM 32.0 °F 22.1 °F 30.2 °F 93% 29.72 in 1.2 mi ESE 13.8 mph - N/A Snow Light Snow
1:34 PM 32.0 °F 23.6 °F 30.2 °F 93% 29.70 in 1.5 mi East 10.4 mph - N/A Snow Light Snow
1:54 PM 32.0 °F 22.1 °F 32.0 °F 100% 29.71 in 1.8 mi East 13.8 mph - N/A Snow Light Snow
2:14 PM 32.0 °F 22.1 °F 32.0 °F 100% 29.71 in 1.8 mi East 13.8 mph - N/A Snow Light Snow
2:34 PM 32.0 °F 22.1 °F 32.0 °F 100% 29.70 in 0.8 mi East 13.8 mph - N/A Snow Light Snow
2:54 PM 32.0 °F 23.0 °F 32.0 °F 100% 29.71 in 1.2 mi East 11.5 mph - N/A Snow Light Snow
3:14 PM 32.0 °F 23.0 °F 32.0 °F 100% 29.71 in 1.2 mi East 11.5 mph - N/A Snow Light Snow
3:34 PM 32.0 °F 22.5 °F 32.0 °F 100% 29.71 in 1.5 mi East 12.7 mph - N/A Snow Light Snow
3:54 PM 32.0 °F 22.1 °F 32.0 °F 100% 29.71 in 1.8 mi East 13.8 mph - N/A Snow Light Snow
4:14 PM 32.0 °F 22.5 °F 32.0 °F 100% 29.72 in 1.5 mi East 12.7 mph - N/A Snow Light Snow
4:34 PM 32.0 °F 23.0 °F 32.0 °F 100% 29.72 in 1.2 mi East 11.5 mph - N/A Snow Light Snow
4:54 PM 32.0 °F 22.1 °F 32.0 °F 100% 29.72 in 1.2 mi East 13.8 mph - N/A Snow Light Snow
5:14 PM 32.0 °F 22.5 °F 32.0 °F 100% 29.72 in 1.8 mi East 12.7 mph - N/A Snow Light Snow
5:34 PM 32.0 °F 22.1 °F 32.0 °F 100% 29.73 in 2.0 mi East 13.8 mph - N/A Snow Light Snow
5:54 PM 32.0 °F 22.1 °F 32.0 °F 100% 29.72 in 2.0 mi East 13.8 mph - N/A Snow Light Snow
6:14 PM 32.0 °F 20.5 °F 32.0 °F 100% 29.72 in 2.5 mi East 18.4 mph - N/A Snow Light Snow
6:34 PM 32.0 °F 20.8 °F 32.0 °F 100% 29.72 in 2.5 mi East 17.3 mph - N/A Snow Light Snow
6:54 PM 32.0 °F 20.8 °F 32.0 °F 100% 29.72 in 4.0 mi East 17.3 mph - N/A   Overcast
7:14 PM 32.0 °F 20.5 °F 32.0 °F 100% 29.71 in 7.0 mi East 18.4 mph - N/A   Overcast
7:33 PM 32.0 °F 20.5 °F 32.0 °F 100% 29.71 in 10.0 mi East 18.4 mph 24.2 mph N/A   Overcast
7:54 PM 30.2 °F 17.8 °F 30.2 °F 100% 29.71 in 10.0 mi East 19.6 mph - N/A   Overcast
8:13 PM 30.2 °F 18.5 °F 30.2 °F 100% 29.71 in 10.0 mi East 17.3 mph - N/A   Overcast
8:34 PM 30.2 °F 19.3 °F 30.2 °F 100% 29.72 in 7.0 mi East 15.0 mph - N/A Snow Light Snow
8:54 PM 30.2 °F 19.3 °F 30.2 °F 100% 29.72 in 3.0 mi East 15.0 mph - N/A Snow Light Snow
9:13 PM 30.2 °F 19.8 °F 30.2 °F 100% 29.72 in 5.0 mi East 13.8 mph - N/A Snow Light Snow
9:34 PM 30.2 °F 19.8 °F 30.2 °F 100% 29.73 in 2.5 mi ENE 13.8 mph - N/A Snow Light Snow
9:54 PM 30.2 °F 18.9 °F 30.2 °F 100% 29.74 in 2.5 mi East 16.1 mph 19.6 mph N/A Snow Light Snow
10:13 PM 30.2 °F 20.2 °F 30.2 °F 100% 29.75 in 3.0 mi ENE 12.7 mph 18.4 mph N/A Snow Light Snow
10:34 PM 28.4 °F 18.0 °F 28.4 °F 100% 29.75 in 5.0 mi ENE 12.7 mph - N/A Snow Light Snow
10:54 PM 28.4 °F 17.5 °F 28.4 °F 100% 29.75 in 7.0 mi East 13.8 mph - N/A Snow Light Snow
11:13 PM 28.4 °F 18.5 °F 28.4 °F 100% 29.74 in 4.0 mi ENE 11.5 mph - N/A Snow Light Snow
11:34 PM 28.4 °F 19.1 °F 28.4 °F 100% 29.75 in 4.0 mi ENE 10.4 mph - N/A Snow Light Snow
11:54 PM 28.4 °F 18.5 °F 28.4 °F 100% 29.75 in 10.0 mi East 11.5 mph - N/A   Overcast